www.pogodaiklimat.ru

Погода и климат >> Архив погоды >> Великобритания >> Боскомб Даун


ПОГОДА в Боскомб Даун

  • Прогноз погоды в Боскомб Даун
  • Монитор погоды в Боскомб Даун

АРХИВ ПОГОДЫ в Боскомб Даун

Время (UTC), дата Ветер
(напр.,м/с)
 
Видим.   Явления Облачность Т
(С)
Тd
(С)
f
(%)
Тe
(С)
Тes
(С)
Комфортность P
(гПа)
Po
(гПа)
Тmin
(С)
Tmax
(С)
R
(мм)
R24
(мм)
S
(см)
16 11.09 З 5 5000 м слаб. морось 10/10 90 м
[Frnb]
+17.7 +17.2 97 +17 +17 1021.2 1006.3
17 11.09 З 5 20 км в посл. час морось 9/9 180 м
[Sc]
+17.5 +16.8 96 +17 +17 1021.6 1006.7
18 11.09 З 4 50 км в посл. час морось н/о +17.3 +16.0 92 +17 +17 1022.2 1007.2 +19.1 1
19 11.09 З 4 45 км в посл. час дождь н/о +16.6 +15.2 91 +16 +16 1022.8 1007.8
20 11.09 З 5 45 км н/о +16.2 +15.0 93 +15 +15 1023.4 1008.3
21 11.09 З 6 50 км н/о +15.5 +14.2 92 +14 +14 1023.9 1008.8
22 11.09 З 5 35 км н/о +15.1 +13.4 90 +14 +14 1024.1 1009.0
23 11.09 З 4 40 км н/о +14.0 +12.8 92 +12 +12 1024.5 1009.3
00 12.09 З 3 30 км н/о +13.5 +12.5 94 +12 +12 1025.0 1009.8 0.0
01 12.09 З 4 27 км н/о +13.3 +12.1 92 +11 +11 1025.4 1010.1
02 12.09 ЮЗ 4 30 км н/о +12.7 +11.5 92 +11 +11 1025.7 1010.4
03 12.09 ЮЗ 4 30 км н/о +13.2 +12.3 94 +12 +12 1025.9 1010.7
04 12.09 Ю 4 20 км н/о +12.8 +12.1 96 +11 +11 1026.1 1010.9
05 12.09 ЮЗ 3 25 км н/о +13.4 +12.8 96 +12 +12 1026.2 1011.0
06 12.09 Ю 3 18 км 9/9 150 м
[St]
+13.8 +13.0 95 +13 +13 1026.9 1011.7 +12.6 0.0
07 12.09 Ю 3 10 км 9/9 90 м
[St]
+14.5 +14.1 97 +14 +14 1027.2 1012.0
08 12.09 Ю 4 10 км 9/9 60 м
[St]
+16.5 +16.2 98 +16 +16 1027.3 1012.2
09 12.09 ЮЗ 6 30 км 9/9 120 м
[Sc]
+17.9 +16.7 93 +17 +18 1027.9 1012.9
10 12.09 ЮЗ 8 40 км 9/9 420 м
[Cu Sc]
+19.5 +15.8 79 +21 +21 комфорт 1028.1 1013.1
11 12.09 ЮЗ 7 40 км 9/9 540 м
[Cu Sc]
+19.8 +15.3 75 +21 +22 комфорт 1028.2 1013.2
12 12.09 ЮЗ 6 40 км 9/9 720 м
[Sc]
+20.6 +14.9 70 +23 +24 комфорт 1027.9 1013.0
13 12.09 ЮЗ 8 40 км 9/9 720 м
[Cu Sc]
+20.4 +15.1 72 +23 +23 комфорт 1028.0 1013.1
14 12.09 ЮЗ 7 40 км 9/8 570 м
[Cu Sc Ci fib]
+20.1 +15.4 74 +22 +23 комфорт 1028.0 1013.0
15 12.09 ЮЗ 7 40 км 9/9 500 м
[Cu Sc]
+19.4 +15.9 80 +21 +21 комфорт 1027.8 1012.8
16 12.09 ЮЗ 6 40 км 9/9 450 м
[Cu Sc]
+19.0 +15.7 81 +20 +20 1027.7 1012.8
17 12.09 ЮЗ 6 30 км 8/8 450 м
[Sc]
+19.2 +15.5 79 +20 +20 1027.7 1012.8
18 12.09 ЮЗ 5 29 км н/о +18.0 +15.2 84 +18 +18 1028.2 1013.1 +21.9
19 12.09 Ю 5 30 км н/о +17.2 +14.8 86 +17 +17 1028.5 1013.5
20 12.09 ЮЗ 5 27 км н/о +17.2 +14.7 85 +17 +17 1029.1 1014.0
21 12.09 ЮЗ 5 25 км н/о +17.0 +14.8 87 +16 +16 1029.5 1014.4
22 12.09 ЮЗ 4 11 км в посл. час дождь н/о +16.5 +14.9 90 +16 +16 1029.8 1014.6
23 12.09 ЮЗ 4 26 км в посл. час дождь н/о +16.4 +15.0 91 +16 +16 1030.0 1014.8
00 13.09 ЮЗ 3 17 км в посл. час дождь н/о +16.2 +15.2 94 +16 +16 1030.2 1015.1 0.0
01 13.09 ЮЗ 3 5000 м дымка н/о +16.1 +15.3 95 +16 +16 1030.5 1015.4
02 13.09 З 3 6000 м в посл. час дождь н/о +16.0 +15.5 97 +16 +16 1030.8 1015.6
03 13.09 С 6 50 км в посл. час дождь н/о +14.2 +13.0 92 +12 +12 1031.6 1016.3
04 13.09 С 5 50 км н/о +13.0 +9.8 81 +11 +11 1032.1 1016.8
05 13.09 С 3 50 км н/о +12.1 +9.9 86 +10 +10 1033.2 1017.8
06 13.09 С 3 30 км 3/1 840 м
[Sc Ci fib]
+11.3 +9.6 89 +10 +10 1033.8 1018.3 +11.3 0.2
07 13.09 С 4 30 км 3/1 900 м
[Sc Ci fib]
+12.2 +9.6 84 +10 +11 1034.3 1018.9
08 13.09 С 5 30 км 3/1 900 м
[Sc Ci fib]
+13.7 +9.6 76 +12 +13 1034.8 1019.4
09 13.09 С 6 35 км 4/1 900 м
[Sc Ci fib]
+14.9 +8.7 66 +13 +15 1035.6 1020.3
10 13.09 С 5 35 км 3/1 1200 м
[Sc Ci fib]
+16.0 +8.2 60 +15 +19 1035.5 1020.2
11 13.09 С 5 35 км 3/1 1350 м
[Sc Ci fib]
+16.6 +8.2 58 +16 +20 1035.3 1020.1
12 13.09 С 5 35 км 3/1 1350 м
[Sc Ci fib]
+18.2 +7.7 50 +18 +23 1035.2 1020.0
13 13.09 СВ 4 40 км 1/1 1500 м
[Sc Ci fib]
+18.7 +6.7 46 +19 +25 1034.8 1019.7
14 13.09 СВ 4 40 км 1/0
[Ci fib]
+19.7 +7.1 44 +21 +26 комфорт 1034.7 1019.6
15 13.09 СВ 4 40 км 1/1 1500 м
[Sc Ci fib]
+20.2 +6.2 40 +21 +25 комфорт 1034.6 1019.6
16 13.09 С 4 45 км н/о +20.0 +6.0 40 +21 +21 комфорт 1034.5 1019.5
17 13.09 СВ 5 45 км н/о +19.4 +3.8 36 +20 +20 1034.4 1019.4
18 13.09 СВ 4 45 км н/о +18.3 +3.8 38 +18 +18 1034.6 1019.5 +20.5
19 13.09 С 3 50 км н/о +16.0 +4.5 46 +16 +16 1035.1 1019.8
20 13.09 СВ 4 50 км н/о +14.4 +4.5 51 +13 +13 1035.6 1020.3
21 13.09 СВ 4 50 км н/о +13.5 +4.3 54 +12 +12 1035.7 1020.3
22 13.09 В 3 50 км н/о +13.0 +3.6 53 +12 +12 1036.0 1020.6
23 13.09 СВ 3 50 км н/о +12.1 +3.8 57 +11 +11 1035.8 1020.3
00 14.09 СВ 2 50 км н/о +11.4 +4.3 62 +10 +10 1035.6 1020.1
01 14.09 СВ 4 50 км н/о +11.1 +6.0 71 +9 +9 1035.6 1020.1
02 14.09 СВ 3 50 км н/о +11.3 +7.9 80 +10 +10 1035.7 1020.2
03 14.09 В 2 35 км н/о +9.1 +6.8 86 +8 +8 1035.4 1019.8
04 14.09 В 2 40 км н/о +9.4 +8.2 92 +8 +8 1034.8 1019.3
05 14.09 С 2 14 км дым н/о +9.0 +7.4 90 +8 +8 1034.9 1019.3
06 14.09 СВ 2 45 км в посл. час туман н/о +8.6 +8.0 96 +7 +7 1034.9 1019.2 +6.8
07 14.09 С 2 12 км н/о +9.1 +8.3 95 +7 +7 1034.8 1019.2
08 14.09 В 3 35 км н/о +12.8 +10.7 87 +12 +12 1034.5 1019.1
09 14.09 ЮВ 3 40 км н/о +15.1 +10.4 73 +14 +14 1033.9 1018.6
10 14.09 ЮВ 3 21 км н/о +17.1 +8.2 56 +17 +17 1033.6 1018.4
11 14.09 ЮВ 2 35 км н/о +18.5 +8.0 50 +19 +19 1033.1 1018.0
12 14.09 ЮВ 2 23 км н/о +19.5 +8.7 50 +21 +21 комфорт 1032.3 1017.3
13 14.09 Ю 2 22 км н/о +20.8 +7.5 42 +23 +23 комфорт 1031.6 1016.6
14 14.09 ЮЗ 1 26 км н/о +21.8 +8.0 41 +23 +23 комфорт 1030.7 1015.8
15 14.09 СЗ 2 50 км н/о +21.9 +6.7 37 +23 +23 комфорт 1029.8 1015.0
16 14.09 С 1 50 км н/о +22.1 +5.9 35 +23 +23 комфорт 1029.2 1014.3
17 14.09 ЮЗ 2 40 км н/о +21.3 +6.4 38 +22 +22 комфорт 1028.7 1013.8
18 14.09 ЮЗ 3 50 км н/о +19.6 +6.8 43 +21 +21 комфорт 1028.7 1013.7 +22.4
19 14.09 ЮЗ 3 40 км н/о +16.3 +9.5 64 +16 +16 1029.2 1014.1
20 14.09 ЮЗ 3 40 км н/о +15.0 +11.2 78 +14 +14 1029.0 1013.8
21 14.09 Ю 3 40 км н/о +14.3 +10.2 76 +14 +14 1028.8 1013.6
22 14.09 СЗ 1 40 км н/о +13.6 +11.1 85 +14 +14 1028.4 1013.2
23 14.09 З 2 17 км н/о +12.8 +11.0 89 +12 +12 1028.2 1012.9
00 15.09 СЗ 3 24 км н/о +11.2 +9.6 90 +10 +10 1028.2 1012.8
01 15.09 СЗ 3 9000 м дымка н/о +10.8 +10.0 95 +9 +9 1027.7 1012.3
02 15.09 СЗ 3 6000 м в посл. час туман н/о +10.1 +9.2 94 +8 +8 1027.2 1011.7
03 15.09 ЮЗ 1 6000 м дымка н/о +10.6 +9.7 94 +10 +10 1026.7 1011.3
04 15.09 Ю 2 300 м туман н/о +9.0 +8.0 93 +8 +8 1026.4 1010.9
05 15.09 ЮЗ 2 100 м туман н/о +9.7 +9.2 97 +8 +8 1026.2 1010.8
06 15.09 З 3 100 м туман н/о +9.9 +9.5 97 +7 +7 1026.4 1011.0 +8.9
07 15.09 СЗ 2 200 м туман н/о +10.5 +10.2 98 +9 +9 1026.3 1010.9
08 15.09 СЗ 2 9000 м в посл. час туман н/о +12.6 +12.3 98 +12 +12 1026.2 1010.9
09 15.09 СЗ 4 30 км н/о +16.1 +13.8 86 +15 +15 1026.2 1011.1
10 15.09 СЗ 3 35 км н/о +19.1 +11.8 63 +20 +20 1025.9 1010.9
11 15.09 СЗ 4 28 км н/о +20.4 +12.6 61 +23 +23 комфорт 1025.8 1010.9
12 15.09 СЗ 3 50 км н/о +22.0 +13.8 60 +25 +25 комфорт 1025.2 1010.4
13 15.09 СЗ 3 40 км н/о +23.4 +14.4 57 +27 +27 душно 1024.6 1009.9
14 15.09 З 4 50 км н/о +23.7 +14.5 56 +26 +26 жарко 1023.8 1009.1
15 15.09 З 5 50 км н/о +23.2 +14.6 58 +27 +27 душно 1023.7 1009.0
16 15.09 З 5 40 км н/о +22.9 +14.6 59 +27 +27 душно 1023.2 1008.5
17 15.09 СЗ 5 30 км н/о +22.3 +14.6 62 +26 +26 жарко 1022.8 1008.1
18 15.09 СЗ 4 50 км н/о +19.7 +13.9 69 +22 +22 комфорт 1023.2 1008.3 +24.2
19 15.09 СЗ 3 50 км н/о +18.4 +14.0 76 +19 +19 1023.4 1008.4
20 15.09 З 4 50 км н/о +17.0 +13.6 80 +17 +17 1023.8 1008.8
21 15.09 З 4 14 км н/о +15.7 +13.7 88 +15 +15 1023.8 1008.7
22 15.09 З 3 7000 м дым н/о +14.8 +13.6 93 +14 +14 1023.8 1008.7
23 15.09 З 3 7000 м дымка н/о +14.2 +13.3 94 +13 +13 1023.8 1008.6
00 16.09 З 3 11 км н/о +14.5 +13.7 95 +13 +13 1023.6 1008.4
01 16.09 З 4 30 км н/о +14.9 +13.9 94 +14 +14 1023.2 1008.1
02 16.09 З 5 35 км н/о +14.8 +13.8 94 +13 +13 1022.8 1007.7
03 16.09 З 3 40 км н/о +14.7 +13.7 94 +14 +14 1022.3 1007.1
04 16.09 СЗ 4 35 км н/о +14.7 +13.6 93 +13 +13 1022.0 1006.9
05 16.09 З 3 45 км н/о +14.5 +13.4 93 +14 +14 1021.7 1006.6
06 16.09 З 4 15 км 10/10 120 м
[St]
+14.6 +13.8 95 +13 +13 1021.9 1006.8 +14.2
07 16.09 З 4 15 км 9/1 120 м
[St Ac As]
+15.1 +14.2 94 +14 +14 1022.0 1006.9
08 16.09 СЗ 4 20 км 9/9 180 м
[Sc Ac trans]
+15.9 +14.5 91 +15 +15 1022.3 1007.3
09 16.09 З 3 25 км 9/9 210 м
[St]
+16.4 +14.8 90 +16 +17 1022.7 1007.6
10 16.09 З 4 25 км 9/9 240 м
[St]
+17.2 +15.2 88 +17 +17 1022.7 1007.7
11 16.09 З 5 20 км 10/10 330 м
[Sc]
+18.2 +14.9 81 +18 +18 1022.5 1007.6
12 16.09 З 4 25 км 10/10 330 м
[Sc]
+17.9 +15.0 83 +18 +18 1022.4 1007.5
13 16.09 З 4 30 км 10/10 400 м
[Sc]
+18.7 +15.2 80 +19 +19 1022.3 1007.4
14 16.09 З 5 25 км 9/9 330 м
[Sc]
+19.3 +15.5 79 +21 +21 комфорт 1022.1 1007.2
15 16.09 З 5 25 км 9/9 360 м
[Sc]
+19.5 +15.4 77 +21 +22 комфорт 1021.9 1007.1
16 16.09 СЗ 3 25 км н/о +19.2 +14.9 76 +21 +21 комфорт 1021.8 1006.9
17 16.09 С 4 18 км в посл. час дождь {морось} 9/9 450 м
[Sc]
+17.5 +15.5 88 +17 +17 1022.0 1007.0
18 16.09 С 3 45 км н/о +17.5 +15.4 87 +17 +17 1022.2 1007.2 +20.1 0.0
19 16.09 С 2 50 км н/о +16.8 +15.0 89 +17 +17 1022.6 1007.5
20 16.09 С 5 11 км н/о +16.2 +14.5 90 +15 +15 1023.0 1008.0
21 16.09 С 5 4700 м слаб. морось н/о +15.0 +14.2 95 +14 +14 1023.6 1008.4
22 16.09 С 3 5000 м слаб. морось н/о +14.8 +14.2 96 +14 +14 1023.8 1008.7
23 16.09 С 2 8000 м в посл. час морось н/о +14.6 +13.9 96 +14 +14 1023.8 1008.6
00 17.09 С 3 9000 м дым н/о +13.5 +12.3 92 +12 +12 1023.9 1008.7 0.4
01 17.09 С 3 9000 м дым н/о +13.0 +12.1 94 +12 +12 1024.1 1008.9
02 17.09 С 4 40 км н/о +12.9 +10.9 88 +11 +11 1024.3 1009.1
03 17.09 С 3 30 км н/о +11.5 +9.7 89 +10 +10 1024.5 1009.2
04 17.09 С 4 45 км н/о +10.4 +8.7 89 +8 +8 1024.7 1009.4
05 17.09 С 4 45 км н/о +9.9 +7.6 86 +7 +7 1025.0 1009.6
06 17.09 СЗ 3 35 км 1/1 700 м
[Sc]
+8.1 +6.9 92 +5 +5 1025.3 1009.8 +8.1 0.4
07 17.09 С 3 30 км 1/1 900 м
[Sc]
+9.1 +7.7 91 +7 +7 1025.7 1010.2
08 17.09 С 4 35 км ясно +11.4 +8.4 82 +9 +11 1026.0 1010.7
09 17.09 С 8 35 км 1/1 600 м
[Sc]
+13.6 +8.1 69 +11 +12 1026.0 1010.8
10 17.09 С 6 40 км 1/1 750 м
[Sc]
+15.4 +8.3 63 +14 +17 1026.0 1010.9
11 17.09 С 7 40 км 1/1 750 м
[Sc]
+16.3 +8.3 59 +15 +17 1025.6 1010.5
12 17.09 С 7 40 км 1/1 1050 м
[Cu hum]
+17.6 +7.8 53 +17 +19 1025.5 1010.5
13 17.09 С 6 40 км 1/1 1200 м
[Sc diur, vesp]
+18.1 +7.4 50 +18 +21 1025.2 1010.2
14 17.09 С 6 45 км н/о +18.3 +6.5 46 +18 +18 1025.3 1010.3
15 17.09 СВ 6 40 км 1/1 1500 м
[Sc]
+18.8 +6.6 45 +19 +20 1025.2 1010.3
16 17.09 С 6 40 км ясно +18.3 +6.0 44 +18 +19 1025.2 1010.2
17 17.09 С 5 40 км ясно +17.5 +6.0 47 +17 +17 1025.4 1010.3
18 17.09 С 5 50 км н/о +16.1 +6.2 52 +15 +15 1025.7 1010.6 +19.2
19 17.09 С 4 50 км н/о +14.5 +6.1 57 +13 +13 1026.2 1011.0
20 17.09 С 3 50 км н/о +13.2 +6.3 63 +12 +12 1026.6 1011.4
21 17.09 С 4 50 км н/о +12.0 +6.3 68 +10 +10 1027.4 1012.1
22 17.09 СВ 3 50 км н/о +12.9 +6.1 63 +12 +12 1027.8 1012.5
23 17.09 СВ 4 45 км н/о +12.0 +6.1 67 +10 +10 1028.0 1012.6
00 18.09 СВ 4 45 км н/о +9.8 +5.9 77 +7 +7 1028.5 1013.0
01 18.09 В 3 45 км н/о +8.7 +5.6 81 +6 +6 1028.7 1013.1
02 18.09 СВ 3 50 км н/о +9.5 +5.5 76 +8 +8 1028.8 1013.3
03 18.09 СВ 2 35 км н/о +8.8 +5.3 79 +7 +7 1028.9 1013.3
04 18.09 СЗ 3 45 км н/о +6.7 +4.4 85 +4 +4 1029.2 1013.5
05 18.09 СЗ 3 23 км н/о +6.1 +4.6 90 +3 +3 1029.5 1013.8
06 18.09 СЗ 2 20 км 1/0
[Ci fib]
+5.7 +4.4 91 +3 +3 1029.8 1014.1 +5.7
07 18.09 СЗ 3 25 км ясно +6.5 +4.7 88 +4 +4 1030.3 1014.6
08 18.09 С 1 30 км 1/0
[Ci fib]
+9.8 +6.1 78 +9 +12 1030.4 1014.9
09 18.09 СВ 3 30 км 1/0
[Ci fib]
+12.5 +6.3 66 +11 +15 1030.7 1015.3
10 18.09 В 3 35 км ясно +15.1 +4.4 49 +15 +20 1030.5 1015.3
11 18.09 СВ 4 40 км ясно +15.8 +4.1 46 +15 +21 1030.3 1015.1
12 18.09 СВ 3 40 км ясно +17.1 +4.7 44 +17 +25 1030.0 1014.9
13 18.09 СВ 3 40 км 1/0
[Ci fib]
+17.7 +5.5 45 +18 +25 1029.6 1014.6
14 18.09 С 3 40 км ясно +18.3 +5.4 43 +19 +24 1029.2 1014.2
15 18.09 С 3 40 км ясно +18.8 +5.5 42 +19 +23 1029.0 1014.0
16 18.09 СВ 3 40 км ясно +18.5 +5.1 41 +19 +21 1028.6 1013.6
17 18.09 СВ 4 40 км ясно +18.0 +5.1 43 +18 +18 1028.7 1013.6

 

Местоположение метеостанции Боскомб Даун (Великобритания): широта 51.17 долгота -1.75 высота над уровнем моря 126 м.

В архиве по умолчанию представлена погода в Боскомб Даун за последнюю неделю. Архивные данные за месяц целиком и за предыдущие месяцы, начиная с января 2011 года, Вы можете получить, выбрав интересующий диапазон дат из раскрывающегося списка и нажав кнопку "Ввод!".


*Определитесь, кто Вы:
робот инопланетянин человек

Внимание! Время в таблицах - всемирное. Для получения местного времени необходимо прибавить поправку, которая равна 0 ч.

Смотрите также архив погоды в соседних городах и на ближайших метеорологических станциях:

Погода в Ларкхилле (Великобритания) (5 км)
Погода в Мидл Уоллоп (Великобритания) (13 км)
Погода в Линхеме (Великобритания) (40 км)
Погода в Борнмуте (Великобритания) (44 км)
Погода в Ли-он-те-Соленте (Великобритания) (55 км)
Погода в Одихеме (Великобритания) (56 км)
Погода в Йеавилтоне (Великобритания) (64 км)
Погода на Авиабазе Brize Norton (Великобритания) (66 км)
Погода в Бенсоне (Великобритания) (68 км)
Погода в Фарнборо (Великобритания) (69 км)

Пояснения к столбцам:

Ветер - указаны скорость ветра в м/с - средняя за 10 мин, порывы в срок и между сроками (в фигурных скобках) и направление, откуда дует ветер: С - северный, СВ - северо-восточный, В - восточный, ЮВ - юго-восточный, Ю - южный, ЮЗ - юго-западный, З - западный, СЗ - северо-западный.
Видимость - горизонтальная дальность видимости в метрах или километрах. При видимости от 1 до 10 км при отсутствии осадков обычно наблюдается дымка, при ухудшении видимости до 1 км и менее - туман. В сухую погоду видимость может ухудшаться дымом, пылью или мглою.
Явления - указаны атмосферные явления, наблюдавшиеся в срок или в последний час перед сроком; фигурными скобками обозначены явления, наблюдавшиеся между сроками (за 1-3 часа до срока); квадратными скобками обозначены град или гололедные отложения с указанием их диаметра в мм.
Облачность - указаны через наклонную черту общая и нижняя облачность в баллах и высота нижней границы облаков в метрах; квадратными скобками обозначены формы облаков: Ci - перистые, Cs - перисто-слоистые, Cc - перисто-кучевые, Ac - высококучевые, As - высокослоистые, Sc - слоисто-кучевые, Ns - слоисто-дождевые, Cu - кучевые, Cb - кучево-дождевые. Подробнее классификацию облаков см. в Атласе облаков (PDF).
T - Температура воздуха - температура, измеренная на высоте 2 м над землей.
Td - Температура точки росы - температура, при понижении до которой содержащийся в воздухе водяной пар достигнет насыщения.
f - Относительная влажность воздуха - влажноcть воздуха, измеренная на высоте 2 м над землей.
Te - Эффективная температура - температура, которую ощущает одетый по сезону человек в тени. Характеристика душности погоды. При расчете учитывается влияние влажности воздуха и скорости ветра на теплоощущения человека.
Tes - Эффективная температура на солнце - температура, которую ощущает человек, с поправкой на солнечный нагрев. Характеристика знойности погоды. Зависит от высоты солнца над горизонтом, облачности и скорости ветра. Ночью, в пасмурную погоду, а также при ветре 12 м/с и более поправка равна нулю.
P - Атмосферное давление - приведенное к уровню моря атмосферное давление.
Po - Атмосферное давление - измеренное на уровне метеостанции атмосферное давление.
Tmin - Минимальная температура - минимум температуры воздуха на высоте 2 м над землей.
Tmax - Максимальная температура - максимум температуры воздуха на высоте 2 м над землей.
R - Количество осадков - Количество выпавших осадков за период времени, мм. При наведении курсора мыши на число - период времени, за который выпало указанное количество осадков.
R24 - Количество осадков - Количество выпавших осадков за 24 часа, мм.
S - Снежный покров - Высота снежного покрова, см. При наведении курсора мыши на число - состояние снежного покрова и степень покрытия местности в баллах.